Location: Isles
(48.9125°N, 2.8272°E)
Time: 12:25:19
(UTC+00:00)

Cosmos 2333 Rocket - Pass Details

Date: 03 February 2023
Orbit: 837 x 864 km, 70.8° (Epoch: 25 March)

Event Time Altitude Azimuth Distance (km) Brightness Sun altitude
Rises 19:55:26 0° 227° (SW) 3,383 5.8 -30.7°
Reaches altitude 10° 19:57:57 10° 234° (SW) 2,455 5.1 -31.1°
Maximum altitude 20:03:21 46° 307° (NW) 1,129 3.1 -32.0°
Enters shadow 20:04:26 41° 337° (NNW) 1,211 3.1 -32.2°
